Total_Precipitation_Accumulation
1.07 1.20 1.26 1.56 1.84 1.98 2.15 2.30 2.41 2.50 2.74 2.92 2.91 2.77 2.58 2.35 2.24 2.23 2.16 2.07 2.00 2.06 2.03 1.85 1.74 1.73 1.65 1.52 1.44 1.38 1.38 1.34 1.29 1.37 1.29 1.15 1.04 0.97 0.87 0.77 0.71 0.69 0.68
0.95 1.07 1.15 1.30 1.54 1.76 1.97 2.21 2.32 2.41 2.42 2.48 2.71 2.86 2.90 2.71 2.42 2.25 2.17 2.09 2.03 2.04 2.04 2.01 1.93 1.83 1.77 1.72 1.68 1.65 1.59 1.54 1.54 1.57 1.61 1.48 1.32 1.08 0.93 0.89 0.83 0.76 0.75
0.84 0.92 1.06 1.27 1.39 1.53 1.76 2.05 2.21 2.34 2.36 2.39 2.65 2.87 3.04 2.87 2.53 2.17 2.00 2.01 2.03 2.07 2.00 2.01 2.06 2.00 1.90 1.78 1.73 1.70 1.69 1.66 1.63 1.62 1.74 1.59 1.32 1.05 0.92 0.84 0.80 0.78 0.77
0.71 0.75 0.87 1.06 1.20 1.35 1.52 1.69 1.90 2.07 2.27 2.36 2.42 2.46 2.59 2.58 2.32 2.20 2.09 2.08 2.08 2.09 2.06 2.03 2.05 2.04 1.97 1.82 1.77 1.72 1.67 1.69 1.67 1.63 1.55 1.44 1.22 1.13 1.03 0.90 0.81 0.79 0.80
0.70 0.69 0.83 1.02 1.09 1.19 1.42 1.56 1.65 1.84 2.07 2.22 2.27 2.39 2.39 2.42 2.47 2.43 2.32 2.21 2.14 2.09 2.04 2.02 2.03 1.96 1.91 1.86 1.89 1.84 1.81 1.76 1.68 1.60 1.54 1.53 1.36 1.17 1.14 1.02 0.88 0.86 0.84
0.76 0.80 0.91 1.00 1.04 1.10 1.26 1.48 1.48 1.58 1.75 2.01 2.22 2.27 2.22 2.26 2.31 2.30 2.24 2.20 2.16 2.12 2.04 1.95 1.91 1.88 1.89 1.89 1.91 1.95 1.91 1.89 1.85 1.74 1.61 1.60 1.57 1.38 1.31 1.24 1.05 0.98 0.92
0.71 0.79 0.88 0.89 0.95 1.04 1.15 1.32 1.40 1.48 1.58 1.75 1.95 2.12 2.21 2.22 2.23 2.24 2.19 2.09 1.98 1.88 1.86 1.89 1.84 1.78 1.73 1.77 1.84 1.93 1.93 1.88 1.88 1.82 1.73 1.66 1.57 1.46 1.44 1.42 1.27 1.16 1.05
0.59 0.62 0.73 0.81 0.90 0.99 1.04 1.09 1.14 1.20 1.28 1.37 1.51 1.70 1.96 2.07 2.00 2.00 1.97 1.93 1.85 1.81 1.79 1.78 1.80 1.80 1.77 1.73 1.77 1.82 1.86 1.86 1.80 1.70 1.65 1.61 1.53 1.51 1.53 1.50 1.53 1.52 1.31
0.62 0.60 0.65 0.69 0.78 0.90 1.01 1.00 0.99 1.03 1.12 1.16 1.24 1.36 1.58 1.75 1.79 1.81 1.76 1.67 1.63 1.68 1.68 1.67 1.67 1.70 1.72 1.71 1.73 1.78 1.75 1.76 1.74 1.69 1.60 1.50 1.39 1.38 1.39 1.40 1.48 1.65 1.60
0.63 0.59 0.61 0.63 0.68 0.77 0.89 0.93 0.94 0.95 1.08 1.12 1.14 1.22 1.32 1.42 1.58 1.67 1.56 1.50 1.48 1.50 1.51 1.51 1.50 1.52 1.54 1.56 1.61 1.62 1.59 1.59 1.57 1.56 1.57 1.52 1.40 1.36 1.38 1.43 1.48 1.56 1.64
0.64 0.65 0.65 0.65 0.69 0.77 0.80 0.82 0.89 0.93 1.04 1.08 1.04 1.05 1.12 1.17 1.26 1.35 1.39 1.33 1.34 1.33 1.32 1.32 1.33 1.32 1.34 1.38 1.43 1.42 1.44 1.49 1.48 1.47 1.50 1.51 1.47 1.46 1.45 1.50 1.55 1.61 1.68
0.58 0.62 0.62 0.62 0.68 0.74 0.74 0.71 0.78 0.84 0.95 0.99 0.94 0.94 0.99 1.05 1.09 1.13 1.21 1.22 1.21 1.21 1.23 1.24 1.22 1.19 1.16 1.20 1.24 1.26 1.28 1.31 1.35 1.40 1.45 1.48 1.49 1.52 1.53 1.57 1.58 1.59 1.58
0.43 0.48 0.50 0.50 0.53 0.55 0.58 0.64 0.67 0.66 0.72 0.76 0.74 0.75 0.77 0.84 0.92 0.96 0.99 1.04 1.08 1.11 1.14 1.17 1.14 1.14 1.12 1.13 1.14 1.13 1.14 1.17 1.19 1.23 1.29 1.31 1.37 1.43 1.45 1.49 1.53 1.50 1.48
0.34 0.40 0.45 0.41 0.43 0.46 0.49 0.55 0.55 0.55 0.61 0.63 0.62 0.64 0.67 0.69 0.75 0.81 0.81 0.82 0.87 0.93 1.00 1.08 1.06 1.04 1.06 1.10 1.12 1.15 1.13 1.12 1.11 1.11 1.17 1.21 1.25 1.28 1.32 1.41 1.43 1.42 1.43
0.29 0.34 0.42 0.42 0.42 0.43 0.45 0.47 0.52 0.58 0.64 0.67 0.66 0.64 0.64 0.65 0.68 0.73 0.75 0.73 0.73 0.73 0.77 0.86 0.94 0.97 0.98 1.02 1.05 1.07 1.10 1.11 1.10 1.12 1.16 1.22 1.37 1.38 1.32 1.30 1.27 1.27 1.34
0.25 0.28 0.34 0.42 0.40 0.45 0.49 0.51 0.57 0.67 0.70 0.73 0.70 0.68 0.65 0.63 0.61 0.61 0.63 0.64 0.65 0.65 0.68 0.74 0.78 0.85 0.92 1.13 1.12 1.03 1.01 1.08 1.12 1.14 1.13 1.17 1.30 1.29 1.27 1.23 1.19 1.20 1.27
0.23 0.26 0.31 0.40 0.41 0.48 0.57 0.63 0.67 0.75 0.76 0.78 0.73 0.68 0.64 0.62 0.60 0.57 0.57 0.61 0.64 0.66 0.70 0.73 0.77 0.82 0.96 1.16 1.16 1.18 1.05 1.05 1.09 1.11 1.09 1.05 1.02 1.06 0.94 1.01 1.09 1.10 1.11
0.19 0.22 0.27 0.30 0.35 0.40 0.49 0.58 0.64 0.76 0.80 0.80 0.79 0.77 0.76 0.77 0.80 0.79 0.80 0.81 0.78 0.81 0.87 0.90 0.93 0.97 1.07 1.16 1.10 1.09 0.98 1.00 1.00 0.96 0.94 0.90 0.84 0.82 0.84 0.85 0.91 0.83 0.79
0.19 0.19 0.22 0.23 0.26 0.31 0.37 0.46 0.58 0.74 0.88 0.96 0.97 0.99 1.02 1.07 1.10 1.12 1.12 1.12 1.12 1.12 1.09 1.05 1.00 0.97 0.99 1.02 0.96 0.92 0.86 0.89 0.87 0.81 0.78 0.78 0.74 0.83 0.92 0.85 0.80 0.73 0.71
0.21 0.20 0.21 0.23 0.26 0.33 0.38 0.51 0.69 0.85 0.97 1.03 1.08 1.13 1.20 1.26 1.24 1.22 1.18 1.11 1.08 1.10 1.08 1.05 1.00 0.92 0.86 0.83 0.78 0.75 0.69 0.71 0.69 0.66 0.64 0.70 0.71 0.82 0.90 0.81 0.78 0.74 0.63
0.29 0.30 0.32 0.36 0.38 0.41 0.49 0.65 0.78 0.90 0.95 0.97 0.99 1.02 1.03 1.06 1.03 1.01 0.97 0.92 0.89 0.84 0.82 0.78 0.73 0.67 0.67 0.68 0.66 0.66 0.60 0.61 0.63 0.64 0.62 0.62 0.73 0.78 0.82 0.84 0.75 0.74 0.73
0.30 0.38 0.45 0.50 0.50 0.53 0.61 0.69 0.72 0.75 0.74 0.71 0.72 0.71 0.67 0.64 0.64 0.67 0.68 0.66 0.65 0.63 0.61 0.57 0.54 0.50 0.50 0.54 0.56 0.62 0.66 0.66 0.62 0.61 0.60 0.65 0.79 0.83 0.84 0.80 0.77 0.85 0.88
0.16 0.21 0.29 0.35 0.35 0.36 0.41 0.45 0.43 0.39 0.37 0.34 0.36 0.37 0.36 0.36 0.37 0.41 0.44 0.46 0.48 0.49 0.50 0.49 0.49 0.46 0.42 0.45 0.53 0.57 0.65 0.72 0.66 0.60 0.65 0.71 0.78 0.80 0.78 0.80 0.81 0.79 0.75
0.12 0.13 0.13 0.16 0.17 0.18 0.20 0.23 0.21 0.18 0.17 0.19 0.21 0.23 0.26 0.28 0.31 0.34 0.38 0.42 0.44 0.44 0.45 0.46 0.46 0.44 0.40 0.40 0.44 0.50 0.57 0.67 0.69 0.68 0.69 0.71 0.72 0.72 0.71 0.73 0.74 0.70 0.69
0.13 0.14 0.14 0.14 0.16 0.16 0.16 0.17 0.17 0.16 0.16 0.16 0.18 0.20 0.22 0.25 0.27 0.30 0.36 0.43 0.45 0.49 0.53 0.52 0.49 0.51 0.49 0.44 0.54 0.62 0.64 0.68 0.73 0.78 0.76 0.70 0.66 0.65 0.65 0.63 0.64 0.66 0.68
0.16 0.15 0.16 0.17 0.20 0.21 0.22 0.23 0.22 0.21 0.20 0.21 0.21 0.24 0.26 0.26 0.27 0.29 0.30 0.37 0.42 0.47 0.50 0.52 0.53 0.49 0.51 0.54 0.60 0.64 0.68 0.75 0.84 0.90 0.81 0.68 0.61 0.59 0.58 0.60 0.62 0.64 0.67